[[{"header":{"parameterUnit":"m.s-1","parameterCategory":1,"la1":30.2991,"la2":30.254,"lo1":-89.0895,"lo2":-89.0444,"dy":0.0017,"dx":0.0017,"nx":28,"ny":28,"refTime":"2024-08-30T03:00:00:Z","depth":0,"parameterNumber":2,"parameterNumberName":"U-component_of_WINDS"},"data":[0,0,0,0,0,0,0,0,0,0,0,0,0,0,0,0,0,0,0,0,0,0,0,0,0,0,0,0,0,0,0,0,0,0,0,0,0,0,0,0,0,0,0,0,0,0,0,0,0,0,0,0,0,0,0,0,0,0,-4.0161,-4.0161,0,-4.0156,-4.0156,-4.0156,-4.0077,-4.0075,-4.0073,-4.0071,-4.0066,-4.0068,-4.007,0,0,0,0,0,0,0,0,0,0,0,0,0,-4.0105,-4.0107,-4.0161,-4.0161,-4.0161,-4.0156,-4.0156,-4.0156,-4.0077,-4.0075,-4.0072,-4.007,-4.0066,-4.0068,-4.007,0,0,0,0,0,0,0,0,0,0,0,0,0,-4.0118,-4.0107,-4.0161,-4.0121,-4.0117,-4.0156,-4.0156,-4.0156,-4.0078,-4.0075,-4.0072,-4.0069,-4.0065,-4.0068,-4.007,-4.0146,0,0,-4.0078,-4.0079,0,0,0,0,0,0,0,0,-4.0117,-4.012,-4.0127,-4.0124,-4.012,-4.0114,-4.0134,-4.0153,-4.0079,-4.0093,-4.0071,-4.0067,-4.0085,-4.0085,-4.0091,-4.0146,-4.0146,-4.0078,-4.008,-4.0081,-4.0082,0,0,0,0,0,0,0,-4.0116,-4.012,-4.0159,-4.0127,-4.0123,-4.0104,-4.0103,-4.0137,-4.0106,-4.0091,-4.0086,-4.0086,-4.0082,-4.0089,-4.009,-4.0146,-4.0078,-4.0081,-4.0082,-4.0083,-4.0265,-4.0268,0,0,0,0,0,0,-4.0121,-4.0119,-4.0159,-4.0159,-4.0111,-4.0108,-4.0106,-4.0119,-4.0105,-4.01,-4.0089,-4.0082,-4.0086,-4.0087,-4.009,-4.0178,-4.0081,-4.0083,-4.0085,-4.0261,-4.0265,-4.0269,0,0,0,0,0,0,-4.012,-4.0125,-4.0159,-4.0138,-4.014,-4.0112,-4.0127,-4.012,-4.0127,-4.0103,-4.0097,-4.0101,-4.0083,-4.0086,-4.0133,-4.0177,-4.0085,-4.0087,-4.0258,-4.0263,-4.0267,-4.0356,0,0,0,0,0,0,-4.0119,-4.0125,-4.0153,-4.0139,-4.0142,-4.0202,-4.013,-4.0122,-4.0131,-4.0123,-4.0113,-4.0108,-4.0081,-4.013,-4.0136,-4.0179,-4.0089,-4.0254,-4.026,-4.0266,-4.0349,-4.0363,-4.0375,0,0,0,0,0,-4.0117,-4.0178,-4.0155,-4.016,-4.0176,-4.0205,-4.0206,-4.0174,-4.0135,-4.0163,-4.0149,-4.0109,-4.0172,-4.0135,-4.0141,-4.0186,-4.0251,-4.0258,-4.0265,-4.0343,-4.036,-4.0375,0,0,0,0,0,0,-4.0198,-4.0175,-4.0149,-4.0208,-4.0209,-4.0191,-4.0225,-4.0193,-4.0205,-4.0197,-4.0156,-4.0155,-4.0208,-4.0202,-4.0162,-4.026,-4.0204,-4.0213,-4.0261,-4.0278,-4.0291,-4.029,-4.0091,0,0,0,0,0,-4.0223,-4.0247,-4.0227,-4.028,-4.0282,-4.0254,-4.0265,-4.024,-4.024,-4.024,-4.0228,-4.023,-4.025,-4.0264,-4.0281,-4.0349,-4.0345,-4.0383,-4.0396,-4.0407,-4.0414,-4.0451,-4.0467,-4.0293,-4.0293,-4.0293,0,0,-4.0273,-4.0264,-4.0282,-4.0296,-4.0294,-4.0321,-4.0255,-4.0286,-4.0306,-4.0245,-4.0288,-4.028,-4.0279,-4.0337,-4.0362,-4.0333,-4.0462,-4.0416,-4.0425,-4.0427,-4.046,-4.0476,-4.0491,-4.0298,-4.0297,-4.0296,0,0,-4.038,-4.0376,-4.042,-4.042,-4.0418,-4.0399,-4.041,-4.0399,-4.0391,-4.0434,-4.0389,-4.0413,-4.0448,-4.0449,-4.0455,-4.0566,-4.0529,-4.0573,-4.0641,-4.0677,-4.0691,-4.0702,-4.0742,-4.0756,-4.0581,-4.0581,-4.0581,0,-4.0443,-4.0481,-4.0447,-4.0481,-4.0489,-4.0436,-4.0481,-4.0483,-4.0487,-4.0494,-4.0462,-4.0507,-4.0502,-4.056,-4.0587,-4.0594,-4.0605,-4.0572,-4.0691,-4.0703,-4.0714,-4.0751,-4.0765,-4.0586,-4.0586,-4.0585,-4.0584,0,-4.056,-4.0587,-4.0624,-4.0629,-4.0641,-4.0681,-4.0653,-4.067,-4.0645,-4.0631,-4.0676,-4.067,-4.0685,-4.0697,-4.0673,-4.0752,-4.0735,-4.0698,-4.0641,-4.0736,-4.077,-4.0784,-4.0593,-4.0592,-4.059,-4.0589,0,0,-4.0713,-4.0701,-4.0715,-4.0718,-4.0713,-4.0734,-4.0773,-4.0788,-4.0803,-4.0809,-4.084,-4.0873,-4.0839,-4.0846,-4.0821,-4.0853,-4.0941,-4.0812,-4.0812,-4.0836,-4.1029,-4.1055,-4.1072,-4.0919,-4.0921,-4.0923,-4.1029,0,-4.0816,-4.0879,-4.0851,-4.0918,-4.0943,-4.0895,-4.0929,-4.093,-4.0918,-4.0939,-4.0926,-4.095,-4.0904,-4.0908,-4.0937,-4.0924,-4.0979,-4.0917,-4.0947,-4.0949,-4.0947,-4.109,-4.1118,-4.1217,-4.1042,-4.1044,-4.1046,0,-4.0942,-4.0953,-4.1023,-4.1016,-4.1025,-4.1056,-4.1068,-4.1089,-4.109,-4.108,-4.1089,-4.1058,-4.1096,-4.1042,-4.1094,-4.1052,-4.1063,-4.1059,-4.1062,-4.1062,-4.1001,-4.1093,-4.1248,-4.1263,-4.1066,-4.1065,-4.1063,0,-4.1047,-4.108,-4.1126,-4.113,-4.1122,-4.1145,-4.1143,-4.1141,-4.1153,-4.1165,-4.1172,-4.1188,-4.1197,-4.1211,-4.1186,-4.1149,-4.1242,-4.1185,-4.1234,-4.1235,-4.1254,-4.1253,-4.1412,-4.1264,-4.1264,-4.1264,-4.1263,0,-4.1163,-4.1207,-4.1173,-4.1201,-4.125,-4.1218,-4.1268,-4.126,-4.126,-4.1287,-4.1247,-4.1273,-4.1239,-4.1263,-4.1244,-4.129,-4.1295,-4.1287,-4.1281,-4.129,-4.1291,-4.1295,-4.1287,-4.1268,-4.1267,-4.1266,-4.1265,0,-4.1286,-4.1265,-4.1312,-4.1302,-4.1301,-4.1338,-4.1329,-4.1355,-4.1342,-4.1377,-4.1383,-4.1362,-4.1388,-4.1365,-4.1389,-4.1377,-4.1438,-4.1423,-4.1438,-4.1433,-4.1483,-4.1478,-4.165,-4.167,-4.151,-4.1512,-4.1513,0,-4.1361,-4.1394,-4.1388,-4.1403,-4.1404,-4.1429,-4.1441,-4.1411,-4.1426,-4.1432,-4.1457,-4.148,-4.1496,-4.1539,-4.1526,-4.1545,-4.153,-4.1589,-4.1532,-4.154,-4.153,-4.1528,-4.1531,-4.1599,-4.1601,-4.1603,-4.1604,0,-4.1495,-4.1484,-4.1502,-4.1519,-4.1535,-4.1546,-4.1554,-4.1569,-4.1539,-4.1558,-4.1583,-4.1596,-4.1622,-4.1644,-4.166,-4.1658,-4.1627,-4.1623,-4.1635,-4.1643,-4.165,-4.1646,-4.1468,-4.1618,-4.1617,-4.1616,-4.1615,-4.1614,-4.1596,-4.1623,-4.1624,-4.1647,-4.165,-4.166,-4.1684,-4.1675,-4.1696,-4.1714,-4.1696,-4.1728,-4.173,-4.1748,-4.1751,-4.1775,-4.1751,-4.1768,-4.1773,-4.1777,-4.1784,-4.1647,-4.1778,-4.1778,-4.1777,-4.1777,-4.1777,0,-4.1727,-4.1726,-4.1748,-4.1761,-4.1779,-4.1749,-4.1757,-4.1775,-4.1803,-4.1808,-4.1825,-4.1856,-4.1879,-4.1869,-4.1889,-4.1911,-4.1897,-4.1917,-4.1914,-4.1915,-4.1805,-4.1792,-4.1928,-4.1928,-4.1928,-4.1928,-4.1928,-4.1928,-4.1798,-4.1843,-4.1833,-4.188,-4.1879,-4.1909,-4.1916,-4.1925,-4.1929,-4.1965,-4.1984,-4.1978,-4.1977,-4.1998,-4.2018,-4.2014,-4.2023,-4.2048,-4.204,-4.1937,-4.1922,-4.1908,-4.1896,-4.2051,-4.2051,-4.2147,-4.2148,-4.2149]},{"header":{"parameterUnit":"m.s-1","parameterCategory":1,"la1":30.2991,"la2":30.254,"lo1":-89.0895,"lo2":-89.0444,"dy":0.0017,"dx":0.0017,"nx":28,"ny":28,"refTime":"2024-08-30T03:00:00:Z","depth":0,"parameterNumber":3,"parameterNumberName":"V-component_of_WINDS"},"data":[0,0,0,0,0,0,0,0,0,0,0,0,0,0,0,0,0,0,0,0,0,0,0,0,0,0,0,0,0,0,0,0,0,0,0,0,0,0,0,0,0,0,0,0,0,0,0,0,0,0,0,0,0,0,0,0,0,0,3.0241,3.0242,0,3.0293,3.0293,3.0294,3.0334,3.0335,3.0335,3.0335,3.0386,3.0387,3.0388,0,0,0,0,0,0,0,0,0,0,0,0,0,3.0177,3.0178,3.0241,3.0242,3.0242,3.0293,3.0294,3.0294,3.0334,3.0335,3.0335,3.0336,3.0386,3.0387,3.0388,0,0,0,0,0,0,0,0,0,0,0,0,0,3.0214,3.0178,3.0241,3.0269,3.0272,3.0293,3.0294,3.0294,3.0334,3.0335,3.0335,3.0336,3.0386,3.0387,3.0388,3.0386,0,0,3.0393,3.0394,0,0,0,0,0,0,0,0,3.0212,3.0216,3.0264,3.0267,3.027,3.0308,3.0289,3.0325,3.0334,3.031,3.0335,3.0336,3.036,3.0363,3.0371,3.0388,3.039,3.0393,3.0394,3.0395,3.0395,0,0,0,0,0,0,0,3.0209,3.0214,3.0262,3.0265,3.0268,3.0278,3.0284,3.0296,3.0331,3.0312,3.0315,3.0321,3.0361,3.037,3.0373,3.0391,3.0393,3.0394,3.0395,3.0396,3.041,3.0409,0,0,0,0,0,0,3.0202,3.0212,3.026,3.0263,3.0242,3.0279,3.0286,3.0295,3.0331,3.0337,3.0321,3.0323,3.0367,3.0371,3.0375,3.0375,3.0395,3.0396,3.0397,3.041,3.041,3.0409,0,0,0,0,0,0,3.0201,3.0206,3.0258,3.0238,3.0246,3.0279,3.029,3.0296,3.0305,3.0337,3.0343,3.0323,3.0368,3.0373,3.0383,3.0377,3.0397,3.0398,3.0411,3.041,3.041,3.0375,0,0,0,0,0,0,3.0199,3.0206,3.0205,3.0238,3.0247,3.0265,3.0289,3.0296,3.0307,3.0311,3.0341,3.0347,3.0369,3.0381,3.0385,3.038,3.0399,3.0412,3.0411,3.041,3.0377,3.0373,3.037,0,0,0,0,0,3.0196,3.0192,3.0205,3.021,3.0246,3.0265,3.027,3.0296,3.0306,3.0306,3.0328,3.0346,3.0378,3.0382,3.0386,3.0382,3.0412,3.0411,3.041,3.0378,3.0374,3.037,0,0,0,0,0,0,3.0156,3.0197,3.0211,3.0217,3.0238,3.0272,3.0272,3.029,3.0306,3.0309,3.034,3.0346,3.0354,3.0369,3.0373,3.0382,3.0397,3.0397,3.0372,3.0368,3.0364,3.036,3.04,0,0,0,0,0,3.0148,3.016,3.0195,3.0197,3.0207,3.0237,3.0246,3.0265,3.0287,3.0295,3.0317,3.0337,3.0352,3.0361,3.0376,3.0379,3.0387,3.0379,3.0375,3.0373,3.0372,3.0376,3.0373,3.0405,3.0406,3.0406,0,0,3.0131,3.0155,3.016,3.019,3.0207,3.0219,3.0244,3.0255,3.0264,3.0296,3.0308,3.0325,3.035,3.0357,3.0361,3.037,3.0365,3.0371,3.0368,3.0369,3.0375,3.0372,3.0369,3.0405,3.0405,3.0405,0,0,3.0106,3.0125,3.013,3.0148,3.0175,3.0196,3.0197,3.0229,3.0242,3.0255,3.028,3.0291,3.0315,3.0332,3.0344,3.0328,3.0346,3.0332,3.0314,3.0319,3.0316,3.0314,3.0309,3.0307,3.0332,3.0332,3.0332,0,3.0081,3.01,3.013,3.014,3.0153,3.0184,3.0189,3.0205,3.0235,3.0243,3.0253,3.0286,3.0304,3.0317,3.0313,3.0321,3.0324,3.0329,3.0314,3.0312,3.0311,3.0307,3.0305,3.033,3.033,3.033,3.033,0,3.0069,3.0082,3.0083,3.0113,3.0126,3.0133,3.0164,3.0173,3.0191,3.0211,3.0224,3.0248,3.027,3.0274,3.0291,3.0289,3.0294,3.0308,3.0324,3.0305,3.0302,3.03,3.0327,3.0328,3.0328,3.0329,0,0,3.0018,3.0067,3.0066,3.0081,3.0115,3.0125,3.0135,3.0157,3.0165,3.0185,3.0194,3.0215,3.0229,3.0243,3.0262,3.0266,3.0253,3.028,3.0281,3.0275,3.0254,3.0243,3.0241,3.0266,3.0265,3.0265,3.0252,0,2.9999,3.0019,3.0046,3.0057,3.007,3.0101,3.011,3.0131,3.015,3.0164,3.0186,3.0201,3.0218,3.0226,3.0231,3.0254,3.025,3.0255,3.0274,3.0275,3.0267,3.0239,3.0227,3.0214,3.0251,3.0251,3.0251,0,2.9979,2.9999,3.0011,3.0046,3.0052,3.0059,3.0083,3.0095,3.0121,3.0135,3.0151,3.0173,3.0185,3.02,3.0218,3.0221,3.0231,3.0243,3.0243,3.0246,3.0261,3.0241,3.021,3.0208,3.0249,3.0249,3.0249,0,2.9942,2.9972,2.9983,2.9995,3.0035,3.004,3.0056,3.0083,3.0095,3.0115,3.0124,3.0145,3.0157,3.0173,3.02,3.0208,3.0215,3.0232,3.0227,3.0226,3.0226,3.0226,3.0197,3.0233,3.0233,3.0233,3.0233,0,2.9917,2.9923,2.9968,2.9974,2.9983,3.0015,3.0022,3.0042,3.0065,3.0077,3.0105,3.0115,3.015,3.0165,3.0186,3.0198,3.0203,3.0215,3.022,3.0212,3.0211,3.0219,3.0221,3.0232,3.0232,3.0232,3.0232,0,2.9876,2.9906,2.9921,2.9959,2.9968,2.9973,3.0005,3.0013,3.0035,3.005,3.0055,3.0089,3.0108,3.0137,3.0164,3.0178,3.0187,3.0196,3.0178,3.0182,3.0176,3.0176,3.015,3.0149,3.0185,3.0185,3.0184,0,2.9859,2.9865,2.9903,2.9914,2.993,2.9946,2.9959,2.9992,3.0004,3.0035,3.004,3.0061,3.008,3.0108,3.0135,3.0156,3.0166,3.0156,3.017,3.0162,3.0167,3.0166,3.0168,3.0153,3.0152,3.0152,3.0151,0,2.9825,2.984,2.9858,2.9882,2.9897,2.9918,2.9939,2.9946,2.9983,2.9996,3.0016,3.0031,3.0059,3.008,3.0106,3.0123,3.0143,3.0147,3.0147,3.0139,3.0129,3.0135,3.017,3.0147,3.0148,3.0148,3.0148,3.0148,2.9795,2.9803,2.9832,2.9852,2.9872,2.9892,2.9902,2.9926,2.9944,2.997,2.9988,3.0008,3.0035,3.0071,3.0088,3.0103,3.0112,3.0112,3.0112,3.0112,3.0109,3.0127,3.0108,3.0108,3.0108,3.0108,3.0109,0,2.9763,2.9784,2.9802,2.9832,2.9848,2.9868,2.9893,2.9905,2.9922,2.9946,2.9964,2.9988,3.0009,3.0039,3.0062,3.0069,3.0079,3.0074,3.0074,3.0078,3.01,3.0097,3.0066,3.0066,3.0066,3.0066,3.0066,3.0066,2.9748,2.9762,2.9781,2.9805,2.9826,2.9846,2.9859,2.9878,2.9898,2.9923,2.9941,2.9961,2.9988,3.0014,3.0034,3.0042,3.005,3.0042,3.0053,3.0072,3.0076,3.008,3.0078,3.0043,3.0043,3.003,3.003,3.003]}]]